Simultaneous Nadir Overpasses (SNOs) Predictions

Prediction of SNOs between METOP-A and TERRA Satellite Orbit:

Table of predicted SNOs for the next 14.0 days since TLE Epoch: 5/29/2021
Index Date (METOP-A) Time (METOP-A) Lat,Lon (METOP-A) SZA (METOP-A ) Date (TERRA) Time (TERRA) Lat,Lon (TERRA) SZA (TERRA ) Distance(km) Time Diff (sec)
1 05/30/2021 03:20:30 -81.32, -4.05 117.62 05/30/2021 03:20:45 -81.31, -3.90 117.61 2.80 15
2 05/30/2021 04:11:10 81.31, 163.57 62.40 05/30/2021 04:10:12 81.30, 163.46 62.35 2.66 58
3 06/01/2021 22:54:51 -81.31, 62.67 117.99 06/01/2021 22:54:56 -81.33, 62.78 117.97 2.56 5
4 06/01/2021 23:45:31 81.30,-129.74 62.03 06/01/2021 23:44:23 81.31,-129.89 61.98 2.66 68
5 06/04/2021 17:38:32 81.32, -38.70 61.62 06/04/2021 17:39:40 81.32, -38.55 61.67 2.73 68
6 06/04/2021 18:29:12 -81.31, 128.98 118.35 06/04/2021 18:29:07 -81.32, 129.05 118.35 1.23 5
7 06/07/2021 13:12:53 81.31, 27.96 61.34 06/07/2021 13:13:51 81.33, 28.03 61.39 1.89 58
8 06/07/2021 14:03:34 -81.31,-164.72 118.67 06/07/2021 14:03:19 -81.30,-164.72 118.68 0.99 15
9 06/10/2021 08:47:15 81.31, 94.22 61.08 06/10/2021 08:48:03 81.31, 94.19 61.09 0.84 48



Historial Predications of SNOs between METOP-A and TERRA
